Weather History for KDSM - February, 2013

Change the Weather History Date:

Friday, February 22, 2013

  Actual Average Record
Temperature  
Mean Temperature 26 °F 30 °F  
Max Temperature 28 °F 39 °F 68 °F (1982)
Min Temperature 23 °F 21 °F -10 °F (1889)
Degree Days  
Heating Degree Days 39 35  
Month to date heating degree days 800 849  
Since 1 July heating degree days 4142 4629  
Cooling Degree Days 0 0  
Month to date cooling degree days 0 0  
Year to date cooling degree days 0 0  
Moisture  
Dew Point 20 °F    
Average Humidity 78    
Maximum Humidity 88    
Minimum Humidity 68    
Precipitation  
Precipitation 0.11 in 0.06 in 1.20 in (1971)
Month to date precipitation 1.03 0.96  
Year to date precipitation 2.14 1.96  
Snow  
Snow 1.50 in 0.30 in 7.80 in (1994)
Month to date snowfall 6.7 6.5  
Since 1 July snowfall 29.7 26.9  
Snow Depth 6.00 in    
Sea Level Pressure  
Sea Level Pressure 29.87 in    
Wind  
Wind Speed 12 mph (NW)    
Max Wind Speed 23 mph    
Max Gust Speed 27 mph    
Visibility 5 miles    
Events Snow    
T = Trace of Precipitation, MM = Missing Value Source: NWS Daily Summary

Daily Weather History Graph

Daily Weather History Graph

Search for Another Location

Airport or City:

Trip Planner

Search our weather history database for the weather conditions in past years. The results will help you decide how hot, cold, wet, or windy it might be!

Date:

Astronomy

Feb. 22, 2013 Rise Set
Actual Time 6:59 AM CST 5:57 PM CST
Civil Twilight 6:31 AM CST 6:25 PM CST
Nautical Twilight 5:59 AM CST 6:57 PM CST
Astronomical Twilight 5:27 AM CST 7:29 PM CST
Moon 3:07 PM CST (2/22) 4:46 AM CST (2/22)
Length of Visible Light 11h 53m
Length of Day
10h 57m
Waxing Gibbous, 90% of the Moon is Illuminated
Feb 22
Waxing Gibbous
Feb 25
Full
Mar 4
Last Quarter
Mar 11
New
Mar 19
First Quarter

Hourly Weather History & Observations

Time (CST) Temp. Windchill Dew Point Humidity Pressure Visibility Wind Dir Wind Speed Gust Speed Precip Events Conditions
12:03 AM 25.0 °F 13.6 °F 21.0 °F 85% 29.82 in 0.5 mi ENE 12.7 mph - 0.00 in Snow Light Snow
12:21 AM 25.0 °F 13.6 °F 21.0 °F 85% 29.81 in 0.5 mi ENE 12.7 mph - 0.03 in Snow Light Snow
12:40 AM 25.0 °F 14.2 °F 21.9 °F 88% 29.81 in 0.5 mi ENE 11.5 mph - 0.04 in Snow Light Snow
12:54 AM 25.0 °F 14.8 °F 21.9 °F 88% 29.84 in 0.5 mi ENE 10.4 mph - 0.05 in Snow Light Snow
1:40 AM 25.0 °F 16.3 °F 21.9 °F 88% 29.80 in 0.5 mi ENE 8.1 mph - 0.02 in Snow Light Snow
1:54 AM 25.0 °F 14.8 °F 21.9 °F 88% 29.83 in 0.5 mi ENE 10.4 mph - 0.02 in Snow Light Snow
2:30 AM 25.0 °F 14.8 °F 21.0 °F 85% 29.79 in 0.5 mi East 10.4 mph - 0.01 in Snow Light Snow
2:52 AM 24.8 °F 16.1 °F 21.2 °F 86% 29.78 in 4.0 mi East 8.1 mph - 0.01 in Snow Light Snow
2:54 AM 25.0 °F 15.5 °F 21.0 °F 85% 29.81 in 4.0 mi East 9.2 mph - 0.01 in Snow Light Snow
3:11 AM 25.0 °F 17.1 °F 21.0 °F 85% 29.77 in 2.5 mi East 6.9 mph - 0.01 in Snow Light Snow
3:29 AM 25.0 °F 17.1 °F 21.0 °F 85% 29.76 in 2.5 mi ENE 6.9 mph - 0.01 in Snow Light Snow
3:43 AM 25.0 °F 18.1 °F 21.0 °F 85% 29.76 in 1.8 mi ENE 5.8 mph - 0.01 in Snow Light Snow
3:54 AM 24.1 °F 17.0 °F 21.0 °F 88% 29.80 in 1.8 mi ENE 5.8 mph - 0.02 in Snow Light Snow
4:03 AM 24.1 °F 17.0 °F 21.0 °F 88% 29.76 in 2.0 mi ENE 5.8 mph - 0.00 in Snow Light Snow
4:11 AM 24.1 °F 18.2 °F 21.0 °F 88% 29.76 in 1.5 mi ENE 4.6 mph - 0.00 in Snow Light Snow
4:32 AM 24.1 °F 18.2 °F 21.0 °F 88% 29.76 in 2.0 mi NNE 4.6 mph - 0.00 in Snow Light Snow
4:54 AM 24.1 °F 19.7 °F 21.0 °F 88% 29.80 in 2.5 mi Variable 3.5 mph - 0.00 in Snow Light Snow
5:19 AM 23.0 °F 18.4 °F 19.9 °F 88% 29.77 in 3.0 mi North 3.5 mph - 0.00 in Snow Light Snow
5:54 AM 23.0 °F 17.0 °F 19.9 °F 88% 29.82 in 4.0 mi NNW 4.6 mph - 0.01 in Snow Light Snow
6:06 AM 23.0 °F 15.8 °F 19.9 °F 88% 29.78 in 4.0 mi NW 5.8 mph - 0.00 in Snow Light Snow
6:54 AM 24.1 °F 17.0 °F 19.9 °F 84% 29.83 in 3.0 mi NW 5.8 mph - 0.00 in Snow Light Snow
7:10 AM 24.1 °F 17.0 °F 21.0 °F 88% 29.79 in 3.0 mi NNW 5.8 mph - 0.00 in Snow Light Snow
7:15 AM 24.1 °F 17.0 °F 19.9 °F 84% 29.79 in 1.5 mi NNW 5.8 mph - 0.00 in Snow Light Snow
7:46 AM 23.0 °F 17.0 °F 19.9 °F 88% 29.80 in 1.2 mi NW 4.6 mph - 0.00 in Snow Light Snow
7:54 AM 23.0 °F 17.0 °F 19.9 °F 88% 29.83 in 1.5 mi NNW 4.6 mph - 0.00 in Snow Light Snow
8:09 AM 23.0 °F 17.0 °F 19.9 °F 88% 29.80 in 2.0 mi NW 4.6 mph - 0.00 in Snow Light Snow
8:33 AM 24.1 °F 16.0 °F 19.9 °F 84% 29.80 in 3.0 mi NW 6.9 mph - 0.00 in   Overcast
8:54 AM 25.0 °F 17.1 °F 21.0 °F 85% 29.85 in 4.0 mi WNW 6.9 mph - 0.00 in   Mostly Cloudy
9:27 AM 26.1 °F 17.6 °F 21.0 °F 81% 29.84 in 6.0 mi WNW 8.1 mph - N/A   Haze
9:54 AM 27.0 °F 18.0 °F 21.0 °F 78% 29.88 in 5.0 mi West 9.2 mph - 0.00 in Snow Light Snow
10:04 AM 26.1 °F 16.2 °F 21.0 °F 81% 29.85 in 3.0 mi West 10.4 mph - 0.00 in Snow Light Snow
10:15 AM 26.1 °F 16.2 °F 21.0 °F 81% 29.86 in 2.0 mi West 10.4 mph - 0.00 in Snow Light Snow
10:28 AM 26.1 °F 15.6 °F 21.0 °F 81% 29.86 in 1.2 mi West 11.5 mph - 0.00 in Snow Light Snow
10:46 AM 26.1 °F 15.0 °F 19.9 °F 78% 29.87 in 2.0 mi WNW 12.7 mph - 0.00 in Snow Light Snow
10:54 AM 27.0 °F 15.2 °F 19.9 °F 75% 29.91 in 5.0 mi WNW 15.0 mph - 0.00 in Snow Light Snow
11:23 AM 27.0 °F 16.1 °F 19.9 °F 75% 29.88 in 10.0 mi West 12.7 mph - 0.00 in   Mostly Cloudy
11:54 AM 26.1 °F 13.6 °F 19.9 °F 78% 29.92 in 10.0 mi WNW 16.1 mph - 0.00 in   Scattered Clouds
12:54 PM 27.0 °F 15.6 °F 19.0 °F 72% 29.93 in 10.0 mi West 13.8 mph - N/A   Scattered Clouds
1:54 PM 27.0 °F 13.5 °F 18.0 °F 69% 29.94 in 10.0 mi West 19.6 mph - N/A   Partly Cloudy
2:27 PM 27.0 °F 13.9 °F 18.0 °F 69% 29.91 in 10.0 mi WNW 18.4 mph - N/A   Mostly Cloudy
2:54 PM 26.1 °F 13.1 °F 18.0 °F 71% 29.95 in 10.0 mi WNW 17.3 mph - N/A   Overcast
3:54 PM 25.0 °F 10.9 °F 17.1 °F 72% 29.98 in 10.0 mi WNW 19.6 mph - N/A   Overcast
4:54 PM 25.0 °F 13.1 °F 17.1 °F 72% 29.98 in 10.0 mi WNW 13.8 mph - N/A   Overcast
5:54 PM 25.0 °F 12.2 °F 17.1 °F 72% 30.00 in 10.0 mi WNW 16.1 mph - N/A   Overcast
6:54 PM 25.0 °F 14.2 °F 16.0 °F 69% 30.02 in 10.0 mi West 11.5 mph - N/A   Overcast
7:54 PM 24.1 °F 13.1 °F 16.0 °F 71% 30.03 in 9.0 mi West 11.5 mph - 0.00 in Snow Light Snow
8:54 PM 24.1 °F 12.5 °F 15.1 °F 69% 30.03 in 9.0 mi West 12.7 mph - 0.00 in Snow Light Snow
9:54 PM 24.1 °F 13.7 °F 15.1 °F 69% 30.02 in 9.0 mi West 10.4 mph - 0.00 in Snow Light Snow
10:54 PM 23.0 °F 13.1 °F 15.1 °F 72% 30.02 in 9.0 mi West 9.2 mph - 0.00 in Snow Light Snow
11:54 PM 23.0 °F 10.6 °F 14.0 °F 68% 30.02 in 9.0 mi West 13.8 mph - 0.00 in Snow Light Snow